[[{"header":{"parameterUnit":"m.s-1","parameterCategory":1,"la1":30.2991,"la2":30.254,"lo1":-89.0895,"lo2":-89.0444,"dy":0.0017,"dx":0.0017,"nx":28,"ny":28,"refTime":"2025-03-29T03:00:00:Z","depth":0,"parameterNumber":2,"parameterNumberName":"U-component_of_WINDS"},"data":[0,0,0,0,0,0,0,0,0,0,0,0,0,0,0,0,0,0,0,0,0,0,0,0,0,0,0,0,0,0,0,0,0,0,0,0,0,0,0,0,0,0,0,0,0,0,0,0,0,0,0,0,0,0,0,0,0,0,-1.3449,-1.345,0,-1.3537,-1.3538,-1.3539,-1.357,-1.3569,-1.3569,-1.3569,-1.3659,-1.3662,-1.3664,0,0,0,0,0,0,0,0,0,0,0,0,0,-1.3309,-1.3312,-1.3449,-1.345,-1.3451,-1.3537,-1.3538,-1.3539,-1.357,-1.3569,-1.3569,-1.3568,-1.3658,-1.3661,-1.3665,0,0,0,0,0,0,0,0,0,0,0,0,0,-1.3381,-1.3312,-1.3449,-1.3477,-1.348,-1.3536,-1.3538,-1.3539,-1.357,-1.3569,-1.3569,-1.3568,-1.3657,-1.3661,-1.3665,-1.37,0,0,-1.3678,-1.3679,0,0,0,0,0,0,0,0,-1.3377,-1.3386,-1.3472,-1.3475,-1.3479,-1.3542,-1.3522,-1.3593,-1.357,-1.3536,-1.3569,-1.3568,-1.3621,-1.3628,-1.3645,-1.3704,-1.3708,-1.3678,-1.368,-1.3682,-1.3683,0,0,0,0,0,0,0,-1.3372,-1.3382,-1.3484,-1.3473,-1.3477,-1.3485,-1.3495,-1.3535,-1.358,-1.3539,-1.3541,-1.3551,-1.3622,-1.3641,-1.3647,-1.371,-1.3678,-1.3682,-1.3684,-1.3686,-1.3802,-1.3803,0,0,0,0,0,0,-1.3362,-1.3378,-1.3481,-1.3486,-1.3425,-1.3488,-1.3499,-1.3522,-1.358,-1.3588,-1.3551,-1.3552,-1.3634,-1.3643,-1.3651,-1.3695,-1.3682,-1.3686,-1.3688,-1.3801,-1.3802,-1.3803,0,0,0,0,0,0,-1.3359,-1.3371,-1.3477,-1.3433,-1.3447,-1.3491,-1.3517,-1.3524,-1.3543,-1.3589,-1.3597,-1.3562,-1.3634,-1.3645,-1.3688,-1.3699,-1.3688,-1.3692,-1.3801,-1.3802,-1.3802,-1.3784,0,0,0,0,0,0,-1.3355,-1.3369,-1.3383,-1.3433,-1.3449,-1.3512,-1.3518,-1.3526,-1.355,-1.3551,-1.3601,-1.3609,-1.3635,-1.3681,-1.3692,-1.3704,-1.3695,-1.38,-1.3801,-1.3802,-1.3784,-1.3785,-1.3785,0,0,0,0,0,-1.335,-1.3375,-1.3383,-1.3396,-1.3467,-1.3513,-1.3522,-1.3551,-1.355,-1.3564,-1.3594,-1.3608,-1.3696,-1.3685,-1.3697,-1.3711,-1.3799,-1.3801,-1.3802,-1.3784,-1.3785,-1.3785,0,0,0,0,0,0,-1.3325,-1.3382,-1.3392,-1.3434,-1.3468,-1.3518,-1.3537,-1.3551,-1.3586,-1.3586,-1.3621,-1.3632,-1.3672,-1.3696,-1.3683,-1.3748,-1.3748,-1.3752,-1.3731,-1.3732,-1.3732,-1.3725,-1.3698,0,0,0,0,0,-1.3325,-1.3357,-1.3405,-1.3437,-1.3454,-1.3492,-1.3513,-1.3532,-1.3569,-1.3584,-1.3617,-1.3653,-1.3689,-1.3712,-1.3747,-1.3788,-1.3799,-1.3804,-1.3804,-1.3804,-1.3807,-1.383,-1.3833,-1.3808,-1.3808,-1.3808,0,0,-1.3324,-1.3359,-1.3377,-1.3433,-1.3462,-1.3495,-1.3504,-1.3539,-1.3563,-1.359,-1.3631,-1.3657,-1.3699,-1.3741,-1.3761,-1.3762,-1.3816,-1.3806,-1.3806,-1.3809,-1.3832,-1.3834,-1.3836,-1.3809,-1.3808,-1.3808,0,0,-1.3339,-1.3369,-1.3399,-1.3428,-1.3471,-1.3496,-1.3504,-1.3551,-1.3569,-1.3612,-1.3632,-1.3662,-1.3723,-1.3753,-1.3775,-1.3802,-1.3815,-1.3813,-1.3814,-1.3837,-1.3839,-1.3841,-1.385,-1.3853,-1.3815,-1.3815,-1.3815,0,-1.3333,-1.3383,-1.3413,-1.3446,-1.347,-1.3495,-1.3526,-1.3552,-1.3605,-1.3621,-1.3622,-1.3699,-1.373,-1.3778,-1.3785,-1.3803,-1.3812,-1.3807,-1.3836,-1.3838,-1.384,-1.3849,-1.3853,-1.3815,-1.3815,-1.3815,-1.3815,0,-1.3372,-1.3407,-1.3426,-1.3476,-1.3502,-1.3534,-1.3569,-1.3592,-1.3609,-1.3635,-1.3678,-1.3715,-1.3758,-1.3772,-1.3789,-1.3823,-1.3822,-1.3829,-1.383,-1.3842,-1.3851,-1.3854,-1.3814,-1.3814,-1.3814,-1.3814,0,0,-1.3374,-1.344,-1.3447,-1.347,-1.352,-1.3547,-1.358,-1.3622,-1.3641,-1.3677,-1.3706,-1.3757,-1.3764,-1.379,-1.381,-1.383,-1.3848,-1.3835,-1.3836,-1.3835,-1.3888,-1.3882,-1.3885,-1.3858,-1.3859,-1.3859,-1.3884,0,-1.3396,-1.3455,-1.3483,-1.3531,-1.3563,-1.3587,-1.3616,-1.365,-1.3675,-1.3706,-1.3734,-1.3769,-1.3775,-1.3791,-1.3812,-1.3841,-1.3859,-1.384,-1.3885,-1.3886,-1.3872,-1.389,-1.3884,-1.3906,-1.3888,-1.3889,-1.3889,0,-1.3428,-1.3463,-1.3514,-1.356,-1.3574,-1.36,-1.3641,-1.367,-1.3709,-1.3726,-1.3755,-1.3775,-1.3811,-1.3809,-1.386,-1.3846,-1.3866,-1.3884,-1.3885,-1.389,-1.3888,-1.3895,-1.3913,-1.3916,-1.3895,-1.3894,-1.3894,0,-1.3424,-1.3484,-1.3522,-1.3541,-1.3596,-1.3613,-1.3636,-1.3675,-1.3699,-1.3735,-1.375,-1.379,-1.3812,-1.3842,-1.3873,-1.3869,-1.392,-1.3921,-1.3935,-1.3934,-1.3944,-1.3943,-1.3965,-1.3958,-1.3958,-1.3957,-1.3957,0,-1.3444,-1.3474,-1.352,-1.3544,-1.3578,-1.361,-1.3643,-1.3669,-1.3703,-1.3732,-1.3756,-1.3783,-1.3821,-1.3853,-1.3877,-1.3915,-1.3925,-1.3939,-1.3945,-1.3937,-1.3935,-1.395,-1.3949,-1.3958,-1.3958,-1.3958,-1.3958,0,-1.3445,-1.3477,-1.352,-1.3568,-1.3581,-1.3604,-1.3646,-1.3669,-1.3695,-1.3731,-1.3742,-1.3783,-1.3821,-1.3855,-1.3906,-1.3922,-1.3961,-1.3968,-1.3947,-1.395,-1.3961,-1.396,-1.3994,-1.4,-1.3989,-1.3989,-1.3989,0,-1.3455,-1.3479,-1.3529,-1.355,-1.3573,-1.3607,-1.3631,-1.3664,-1.3688,-1.3734,-1.3752,-1.3792,-1.3826,-1.3887,-1.3921,-1.396,-1.3969,-1.3978,-1.3975,-1.3965,-1.3968,-1.3966,-1.3969,-1.3978,-1.3978,-1.3978,-1.3978,0,-1.3471,-1.3485,-1.3519,-1.3558,-1.3586,-1.3618,-1.3652,-1.3667,-1.3707,-1.3733,-1.3772,-1.3798,-1.385,-1.389,-1.3933,-1.3958,-1.3974,-1.3978,-1.3984,-1.3975,-1.3962,-1.3968,-1.3947,-1.3977,-1.3977,-1.3977,-1.3977,-1.3977,-1.3476,-1.3498,-1.3537,-1.3573,-1.3602,-1.3632,-1.3657,-1.3686,-1.3719,-1.3763,-1.3781,-1.3821,-1.386,-1.3919,-1.3944,-1.3977,-1.3979,-1.3987,-1.3989,-1.399,-1.3988,-1.3957,-1.3985,-1.3985,-1.3985,-1.3985,-1.3985,0,-1.3492,-1.3519,-1.3552,-1.3597,-1.3626,-1.3639,-1.3676,-1.37,-1.3734,-1.3769,-1.3802,-1.3847,-1.3886,-1.3923,-1.3964,-1.3982,-1.3991,-1.3992,-1.3991,-1.3996,-1.3984,-1.3975,-1.3984,-1.3984,-1.3984,-1.3984,-1.3984,-1.3984,-1.3504,-1.3541,-1.3561,-1.3613,-1.3639,-1.3678,-1.3698,-1.3727,-1.3754,-1.3804,-1.3836,-1.386,-1.3896,-1.3939,-1.3975,-1.3985,-1.3999,-1.3998,-1.401,-1.3997,-1.3997,-1.3997,-1.3989,-1.4001,-1.4001,-1.402,-1.402,-1.402]},{"header":{"parameterUnit":"m.s-1","parameterCategory":1,"la1":30.2991,"la2":30.254,"lo1":-89.0895,"lo2":-89.0444,"dy":0.0017,"dx":0.0017,"nx":28,"ny":28,"refTime":"2025-03-29T03:00:00:Z","depth":0,"parameterNumber":3,"parameterNumberName":"V-component_of_WINDS"},"data":[0,0,0,0,0,0,0,0,0,0,0,0,0,0,0,0,0,0,0,0,0,0,0,0,0,0,0,0,0,0,0,0,0,0,0,0,0,0,0,0,0,0,0,0,0,0,0,0,0,0,0,0,0,0,0,0,0,0,4.0811,4.0812,0,4.0954,4.0956,4.0958,4.101,4.101,4.1009,4.1009,4.1156,4.116,4.1164,0,0,0,0,0,0,0,0,0,0,0,0,0,4.0584,4.0588,4.0811,4.0813,4.0814,4.0954,4.0956,4.0958,4.101,4.101,4.1009,4.1009,4.1154,4.1159,4.1165,0,0,0,0,0,0,0,0,0,0,0,0,0,4.0701,4.0589,4.081,4.0857,4.0863,4.0954,4.0956,4.0959,4.101,4.101,4.1009,4.1008,4.1153,4.1159,4.1165,4.122,0,0,4.1185,4.1188,0,0,0,0,0,0,0,0,4.0694,4.0709,4.0849,4.0854,4.0861,4.0964,4.093,4.1046,4.1011,4.0954,4.1009,4.1008,4.1092,4.1104,4.1132,4.1227,4.1233,4.1186,4.119,4.1193,4.1195,0,0,0,0,0,0,0,4.0686,4.0703,4.0868,4.0851,4.0858,4.0872,4.0888,4.0952,4.1026,4.0959,4.0963,4.098,4.1096,4.1126,4.1136,4.1235,4.1186,4.1192,4.1196,4.1198,4.1386,4.1387,0,0,0,0,0,0,4.067,4.0696,4.0863,4.0872,4.0774,4.0877,4.0894,4.0931,4.1025,4.1039,4.098,4.0982,4.1115,4.1128,4.1141,4.1214,4.1193,4.1199,4.1203,4.1385,4.1386,4.1387,0,0,0,0,0,0,4.0665,4.0684,4.0857,4.0785,4.0808,4.0881,4.0923,4.0935,4.0965,4.1041,4.1054,4.0998,4.1115,4.1132,4.1201,4.122,4.1202,4.1208,4.1383,4.1385,4.1386,4.1358,0,0,0,0,0,0,4.0658,4.0682,4.0703,4.0785,4.0812,4.0913,4.0924,4.0938,4.0976,4.0979,4.1061,4.1074,4.1116,4.1191,4.1207,4.1228,4.1213,4.1382,4.1384,4.1386,4.1357,4.1358,4.1359,0,0,0,0,0,4.065,4.0688,4.0704,4.0723,4.0839,4.0914,4.093,4.0977,4.0977,4.1,4.1049,4.1071,4.1215,4.1197,4.1216,4.124,4.1381,4.1383,4.1386,4.1357,4.1358,4.1359,0,0,0,0,0,0,4.0605,4.07,4.0718,4.0784,4.0841,4.0923,4.0952,4.0976,4.1034,4.1035,4.1092,4.111,4.1175,4.1214,4.1193,4.1299,4.13,4.1306,4.1271,4.1273,4.1273,4.1263,4.1218,0,0,0,0,0,4.0603,4.0656,4.0736,4.0787,4.0814,4.0878,4.0913,4.0945,4.1006,4.103,4.1084,4.1143,4.1202,4.1239,4.1297,4.1363,4.1383,4.1389,4.1389,4.139,4.1395,4.1435,4.1439,4.1395,4.1395,4.1395,0,0,4.06,4.0658,4.0687,4.0779,4.0827,4.0881,4.0898,4.0954,4.0995,4.1039,4.1107,4.1149,4.1219,4.1287,4.132,4.1322,4.1412,4.1393,4.1392,4.1397,4.1438,4.1442,4.1446,4.1396,4.1396,4.1396,0,0,4.0621,4.0669,4.0718,4.0766,4.0839,4.0882,4.0893,4.0973,4.1003,4.1073,4.1107,4.1157,4.1257,4.1306,4.1344,4.1387,4.141,4.1404,4.1408,4.1447,4.145,4.1454,4.1471,4.1476,4.1408,4.1408,4.1408,0,4.0607,4.0689,4.074,4.0795,4.0836,4.0879,4.093,4.0974,4.1061,4.1089,4.109,4.1218,4.1267,4.1349,4.136,4.1388,4.1405,4.1395,4.1446,4.145,4.1454,4.1471,4.1477,4.1407,4.1407,4.1408,4.1408,0,4.067,4.0727,4.0758,4.0843,4.0887,4.0939,4.0999,4.1038,4.1067,4.111,4.1182,4.1243,4.1316,4.1338,4.1366,4.1424,4.1424,4.1434,4.1436,4.1456,4.1473,4.148,4.1406,4.1406,4.1406,4.1407,0,0,4.0665,4.078,4.079,4.0831,4.0915,4.0961,4.1016,4.1088,4.1121,4.118,4.123,4.1314,4.1326,4.1369,4.1404,4.1437,4.1471,4.1445,4.1447,4.1449,4.1541,4.1533,4.154,4.1487,4.1488,4.1489,4.1536,0,4.0699,4.08,4.0849,4.0929,4.0984,4.1026,4.1075,4.1133,4.1176,4.1229,4.1276,4.1336,4.1345,4.1372,4.1408,4.1459,4.149,4.1456,4.1534,4.1536,4.1516,4.1549,4.154,4.1581,4.1543,4.1544,4.1545,0,4.0751,4.0812,4.0897,4.0978,4.1003,4.1046,4.1117,4.1167,4.1235,4.1264,4.1313,4.1347,4.1409,4.1406,4.1493,4.1469,4.1504,4.1534,4.1537,4.1547,4.1542,4.1561,4.1595,4.1602,4.1556,4.1555,4.1554,0,4.0741,4.0844,4.091,4.0943,4.1038,4.1068,4.1109,4.1176,4.1217,4.1279,4.1307,4.1375,4.1413,4.1466,4.1518,4.1511,4.1601,4.1602,4.1628,4.1627,4.1645,4.1644,4.1687,4.1666,4.1666,4.1666,4.1666,0,4.0774,4.0825,4.0907,4.0948,4.1007,4.1064,4.1121,4.1166,4.1226,4.1276,4.1317,4.1364,4.143,4.1486,4.1527,4.1595,4.1611,4.1637,4.1647,4.1634,4.1631,4.1658,4.1657,4.1667,4.1667,4.1667,4.1666,0,4.0773,4.083,4.0905,4.099,4.1012,4.1053,4.1126,4.1168,4.1213,4.1277,4.1296,4.1367,4.1435,4.1493,4.1582,4.161,4.168,4.1692,4.1657,4.1663,4.1687,4.1684,4.175,4.1763,4.1731,4.1731,4.1732,0,4.079,4.0831,4.0921,4.0959,4.0999,4.1058,4.1101,4.1159,4.1202,4.1284,4.1316,4.1387,4.1447,4.1554,4.1615,4.1684,4.1699,4.1717,4.1709,4.1695,4.1701,4.1698,4.1704,4.1717,4.1717,4.1718,4.1718,0,4.0816,4.0843,4.0902,4.0973,4.1023,4.1081,4.114,4.1169,4.1238,4.1284,4.1355,4.1402,4.1494,4.1565,4.1641,4.1685,4.1714,4.172,4.173,4.1717,4.1696,4.171,4.166,4.1718,4.1718,4.1718,4.1718,4.1718,4.0826,4.0865,4.0936,4.1002,4.1053,4.1108,4.1152,4.1204,4.1264,4.1344,4.1375,4.1447,4.1517,4.1623,4.1667,4.1725,4.1729,4.1743,4.1747,4.175,4.1749,4.1686,4.1739,4.1739,4.1739,4.1739,4.1739,0,4.0855,4.0903,4.0963,4.1046,4.1099,4.1121,4.1189,4.1232,4.1295,4.1358,4.1417,4.15,4.1569,4.1636,4.171,4.1744,4.1759,4.1762,4.176,4.177,4.174,4.1725,4.1748,4.1748,4.1748,4.1748,4.1748,4.1748,4.0876,4.0945,4.0981,4.1076,4.1124,4.1196,4.1233,4.1285,4.1336,4.1426,4.1485,4.1528,4.1593,4.1673,4.1738,4.1756,4.1782,4.1781,4.1803,4.1774,4.1772,4.177,4.1757,4.1786,4.1786,4.1829,4.1829,4.1829]}]]